GBHFJ EGCC-EGNV

Flight info

Callsign GBHFJ
Flight time 0h 43m
Altitude 5000
Route POL DCT 543000N0013736W
Aircraft P28R/L-SDFGR/S

Departure

Time 2026-04-21 09:53
Airport Manchester Airport (EGCC)

Arrival

Time 2026-04-21 10:36
Airport Teesside International Airport (EGNV)
Time Latitude Longitude Altitude Speed Heading
2026-04-21 09:34 53.35573 -2.28149 230 ft 0 kts 142°
2026-04-21 09:49 53.35553 -2.28135 229 ft 8 kts 172°
2026-04-21 09:49 53.35480 -2.28136 228 ft 10 kts 192°
2026-04-21 09:49 53.35387 -2.28164 229 ft 17 kts 186°
2026-04-21 09:50 53.35261 -2.28186 225 ft 19 kts 186°
2026-04-21 09:50 53.35228 -2.28191 225 ft 0 kts 185°
2026-04-21 09:51 53.35222 -2.28192 224 ft 7 kts 187°
2026-04-21 09:51 53.35111 -2.28172 225 ft 18 kts 147°
2026-04-21 09:51 53.35111 -2.28043 227 ft 0 kts 50°
2026-04-21 09:52 53.35134 -2.27996 227 ft 26 kts 52°
2026-04-21 09:52 53.35366 -2.27520 248 ft 74 kts 53°
2026-04-21 09:52 53.35713 -2.26808 454 ft 82 kts 52°
2026-04-21 09:52 53.36090 -2.26086 783 ft 83 kts 54°
2026-04-21 09:53 53.36451 -2.25335 1140 ft 82 kts 56°
2026-04-21 09:53 53.36820 -2.24622 1497 ft 81 kts 48°
2026-04-21 09:53 53.37239 -2.23970 1833 ft 82 kts 47°
2026-04-21 09:53 53.37621 -2.23270 2159 ft 80 kts 57°
2026-04-21 09:54 53.37810 -2.22433 2480 ft 78 kts 74°
2026-04-21 09:54 53.38008 -2.21608 2827 ft 76 kts 71°
2026-04-21 09:54 53.38210 -2.20788 3111 ft 77 kts 67°
2026-04-21 09:54 53.38479 -2.20042 3424 ft 75 kts 62°
2026-04-21 09:55 53.38800 -2.19378 3736 ft 73 kts 54°
2026-04-21 09:55 53.39175 -2.18729 3955 ft 80 kts 56°
2026-04-21 09:55 53.39558 -2.18083 4259 ft 77 kts 53°
2026-04-21 09:55 53.39951 -2.17453 4508 ft 78 kts 53°
2026-04-21 09:56 53.40354 -2.16817 4765 ft 82 kts 51°
2026-04-21 09:56 53.40782 -2.16156 4946 ft 89 kts 54°
2026-04-21 09:56 53.41199 -2.15396 5014 ft 95 kts 60°
2026-04-21 09:56 53.41615 -2.14483 5036 ft 103 kts 59°
2026-04-21 09:57 53.42078 -2.13572 5072 ft 104 kts 56°
2026-04-21 09:57 53.42549 -2.12578 5042 ft 109 kts 59°
2026-04-21 09:57 53.42982 -2.11561 5057 ft 109 kts 63°
2026-04-21 09:57 53.43574 -2.10712 5030 ft 120 kts 32°
2026-04-21 09:58 53.44418 -2.10531 5023 ft 124 kts 15°
2026-04-21 09:58 53.45294 -2.10443 4988 ft 127 kts 14°
2026-04-21 09:58 53.46154 -2.10398 4982 ft 126 kts 15°
2026-04-21 09:58 53.47016 -2.10279 5009 ft 124 kts 16°
2026-04-21 09:59 53.47871 -2.10112 4984 ft 124 kts 19°
2026-04-21 09:59 53.48718 -2.09930 5036 ft 123 kts 19°
2026-04-21 09:59 53.49588 -2.09818 5071 ft 125 kts 14°
2026-04-21 09:59 53.50477 -2.09798 5048 ft 129 kts 12°
2026-04-21 10:00 53.51352 -2.09797 5077 ft 126 kts 12°
2026-04-21 10:00 53.52230 -2.09745 5041 ft 129 kts 14°
2026-04-21 10:00 53.53117 -2.09704 5095 ft 125 kts 12°
2026-04-21 10:00 53.54001 -2.09739 5073 ft 128 kts 10°
2026-04-21 10:01 53.54890 -2.09757 5060 ft 129 kts 10°
2026-04-21 10:01 53.55790 -2.09863 5037 ft 132 kts
2026-04-21 10:01 53.56708 -2.10002 5052 ft 131 kts
2026-04-21 10:01 53.57609 -2.10189 5040 ft 132 kts
2026-04-21 10:02 53.59444 -2.10611 5014 ft 135 kts 358°
2026-04-21 10:02 53.60372 -2.10910 4989 ft 135 kts
2026-04-21 10:02 53.61281 -2.11073 4986 ft 131 kts
2026-04-21 10:03 53.62190 -2.11205 4984 ft 131 kts
2026-04-21 10:03 53.63099 -2.11343 4982 ft 131 kts
2026-04-21 10:03 53.64007 -2.11469 4984 ft 131 kts
2026-04-21 10:03 53.64923 -2.11598 4985 ft 133 kts
2026-04-21 10:04 53.65843 -2.11742 4985 ft 132 kts
2026-04-21 10:04 53.66760 -2.11893 4984 ft 132 kts
2026-04-21 10:04 53.67673 -2.12033 4986 ft 132 kts
2026-04-21 10:04 53.68599 -2.12174 4990 ft 134 kts
2026-04-21 10:05 53.69531 -2.12306 4989 ft 133 kts
2026-04-21 10:05 53.70424 -2.12228 4958 ft 130 kts 20°
2026-04-21 10:05 53.71301 -2.12009 5019 ft 125 kts 19°
2026-04-21 10:05 53.72189 -2.11886 4961 ft 130 kts 17°
2026-04-21 10:06 53.73070 -2.11690 5020 ft 125 kts 18°
2026-04-21 10:06 53.73918 -2.11418 5014 ft 123 kts 26°
2026-04-21 10:06 53.74713 -2.10948 5004 ft 120 kts 34°
2026-04-21 10:06 53.75427 -2.10311 5046 ft 114 kts 38°
2026-04-21 10:07 53.76087 -2.09564 5004 ft 114 kts 54°
2026-04-21 10:07 53.76526 -2.08491 5020 ft 111 kts 58°
2026-04-21 10:07 53.77158 -2.07687 4981 ft 122 kts 34°
2026-04-21 10:07 53.77989 -2.07297 4972 ft 124 kts 24°
2026-04-21 10:08 53.78808 -2.06881 4954 ft 122 kts 32°
2026-04-21 10:08 53.79599 -2.06401 4999 ft 121 kts 29°
2026-04-21 10:08 53.80424 -2.05958 4974 ft 125 kts 28°
2026-04-21 10:08 53.81236 -2.05514 5061 ft 121 kts 28°
2026-04-21 10:09 53.82059 -2.05140 5019 ft 126 kts 26°
2026-04-21 10:09 53.82899 -2.04722 4990 ft 124 kts 29°
2026-04-21 10:09 53.83695 -2.04217 5038 ft 121 kts 31°
2026-04-21 10:09 53.84522 -2.03817 5021 ft 126 kts 25°
2026-04-21 10:10 53.85299 -2.03236 4996 ft 121 kts 40°
2026-04-21 10:10 53.86031 -2.02575 4996 ft 120 kts 39°
2026-04-21 10:10 53.86806 -2.01941 5009 ft 126 kts 31°
2026-04-21 10:10 53.87633 -2.01536 5046 ft 124 kts 29°
2026-04-21 10:11 53.88485 -2.01179 5012 ft 128 kts 22°
2026-04-21 10:11 53.89359 -2.01014 5051 ft 127 kts 17°
2026-04-21 10:11 53.90253 -2.00888 5032 ft 126 kts 20°
2026-04-21 10:11 53.91111 -2.00557 5020 ft 126 kts 26°
2026-04-21 10:12 53.91901 -1.99996 4967 ft 122 kts 39°
2026-04-21 10:12 53.92587 -1.99171 4917 ft 119 kts 47°
2026-04-21 10:12 53.93246 -1.98358 4933 ft 117 kts 43°
2026-04-21 10:12 53.93955 -1.97659 4902 ft 117 kts 41°
2026-04-21 10:13 53.94611 -1.96819 4820 ft 117 kts 48°
2026-04-21 10:13 53.95200 -1.95942 4913 ft 110 kts 50°
2026-04-21 10:13 53.95755 -1.95048 4960 ft 107 kts 53°
2026-04-21 10:13 53.96282 -1.94224 5085 ft 105 kts 50°
2026-04-21 10:14 53.96908 -1.93521 5071 ft 112 kts 41°
2026-04-21 10:14 53.97632 -1.92926 5042 ft 119 kts 32°
2026-04-21 10:14 53.98302 -1.92148 4980 ft 116 kts 51°
2026-04-21 10:14 53.98924 -1.91267 4964 ft 118 kts 45°
2026-04-21 10:15 53.99650 -1.90581 4977 ft 121 kts 34°
2026-04-21 10:15 54.00396 -1.89947 4947 ft 117 kts 48°
2026-04-21 10:15 54.00935 -1.88963 5004 ft 112 kts 52°
2026-04-21 10:15 54.01552 -1.88143 5018 ft 115 kts 46°
2026-04-21 10:16 54.02214 -1.87350 5052 ft 116 kts 47°
2026-04-21 10:16 54.02825 -1.86502 5085 ft 112 kts 51°
2026-04-21 10:16 54.03378 -1.85579 5051 ft 112 kts 54°
2026-04-21 10:16 54.03937 -1.84660 5055 ft 112 kts 51°
2026-04-21 10:17 54.04520 -1.83754 5005 ft 114 kts 51°
2026-04-21 10:17 54.05106 -1.82866 4998 ft 113 kts 50°
2026-04-21 10:17 54.05702 -1.81999 4977 ft 111 kts 51°
2026-04-21 10:17 54.06251 -1.81103 4989 ft 108 kts 55°
2026-04-21 10:18 54.06795 -1.80203 4966 ft 110 kts 51°
2026-04-21 10:18 54.07386 -1.79369 4968 ft 111 kts 49°
2026-04-21 10:18 54.07980 -1.78556 5018 ft 108 kts 48°
2026-04-21 10:18 54.08558 -1.77713 5003 ft 110 kts 50°
2026-04-21 10:19 54.09125 -1.76853 5026 ft 109 kts 51°
2026-04-21 10:19 54.09699 -1.76021 5004 ft 107 kts 49°
2026-04-21 10:19 54.10273 -1.75215 4947 ft 109 kts 49°
2026-04-21 10:19 54.10885 -1.74435 4970 ft 110 kts 45°
2026-04-21 10:20 54.11539 -1.73758 4990 ft 112 kts 41°
2026-04-21 10:20 54.12206 -1.73058 4985 ft 112 kts 43°
2026-04-21 10:20 54.12856 -1.72369 5045 ft 109 kts 42°
2026-04-21 10:20 54.13501 -1.71655 5040 ft 111 kts 45°
2026-04-21 10:21 54.14102 -1.70870 5089 ft 108 kts 49°
2026-04-21 10:21 54.14708 -1.70065 5058 ft 113 kts 46°
2026-04-21 10:21 54.15335 -1.69295 5083 ft 111 kts 45°
2026-04-21 10:21 54.15986 -1.68552 5038 ft 113 kts 45°
2026-04-21 10:22 54.16612 -1.67766 5056 ft 111 kts 46°
2026-04-21 10:22 54.17313 -1.67125 5035 ft 120 kts 30°
2026-04-21 10:22 54.18152 -1.66845 4983 ft 125 kts 21°
2026-04-21 10:22 54.19003 -1.66570 4997 ft 123 kts 23°
2026-04-21 10:23 54.19838 -1.66291 4999 ft 123 kts 23°
2026-04-21 10:23 54.20672 -1.65969 4964 ft 121 kts 25°
2026-04-21 10:23 54.21464 -1.65617 4833 ft 119 kts 26°
2026-04-21 10:23 54.22283 -1.65386 4721 ft 120 kts 17°
2026-04-21 10:24 54.23121 -1.65311 4588 ft 122 kts 14°
2026-04-21 10:24 54.23979 -1.65311 4436 ft 124 kts 10°
2026-04-21 10:24 54.24825 -1.65432 4326 ft 124 kts
2026-04-21 10:24 54.25691 -1.65603 4168 ft 126 kts
2026-04-21 10:25 54.26560 -1.65855 4023 ft 128 kts
2026-04-21 10:25 54.27434 -1.66156 3869 ft 128 kts
2026-04-21 10:25 54.28307 -1.66435 3736 ft 128 kts 360°
2026-04-21 10:25 54.29179 -1.66770 3640 ft 127 kts 357°
2026-04-21 10:26 54.30034 -1.67178 3501 ft 129 kts 353°
2026-04-21 10:26 54.30886 -1.67701 3369 ft 131 kts 350°
2026-04-21 10:26 54.31736 -1.68182 3250 ft 126 kts 355°
2026-04-21 10:26 54.32596 -1.68548 3086 ft 127 kts
2026-04-21 10:27 54.33438 -1.68602 3015 ft 119 kts 10°
2026-04-21 10:27 54.34268 -1.68668 2898 ft 120 kts
2026-04-21 10:27 54.35109 -1.68707 2760 ft 121 kts
2026-04-21 10:27 54.35942 -1.68759 2660 ft 120 kts
2026-04-21 10:28 54.36779 -1.68877 2522 ft 120 kts
2026-04-21 10:28 54.37573 -1.68730 2430 ft 111 kts 29°
2026-04-21 10:28 54.38145 -1.67894 2301 ft 109 kts 55°
2026-04-21 10:28 54.38528 -1.66801 2219 ft 105 kts 63°
2026-04-21 10:29 54.38897 -1.65716 2115 ft 105 kts 57°
2026-04-21 10:29 54.39359 -1.64744 2040 ft 104 kts 52°
2026-04-21 10:29 54.39839 -1.63815 1946 ft 104 kts 51°
2026-04-21 10:29 54.40322 -1.62909 1872 ft 103 kts 50°
2026-04-21 10:30 54.40799 -1.62000 1790 ft 103 kts 51°
2026-04-21 10:30 54.41273 -1.61073 1752 ft 104 kts 52°
2026-04-21 10:30 54.41756 -1.60132 1739 ft 105 kts 51°
2026-04-21 10:30 54.42241 -1.59183 1726 ft 106 kts 51°
2026-04-21 10:31 54.42685 -1.58176 1737 ft 105 kts 56°
2026-04-21 10:31 54.43078 -1.57140 1704 ft 100 kts 60°
2026-04-21 10:31 54.43508 -1.56233 1681 ft 97 kts 45°
2026-04-21 10:31 54.44022 -1.55479 1650 ft 96 kts 46°
2026-04-21 10:32 54.44485 -1.54688 1652 ft 95 kts 47°
2026-04-21 10:32 54.44944 -1.53871 1633 ft 94 kts 46°
2026-04-21 10:32 54.45402 -1.53115 1540 ft 90 kts 46°
2026-04-21 10:32 54.45839 -1.52371 1455 ft 88 kts 47°
2026-04-21 10:33 54.46269 -1.51621 1357 ft 89 kts 47°
2026-04-21 10:33 54.46693 -1.50811 1215 ft 91 kts 48°
2026-04-21 10:33 54.47114 -1.50024 1110 ft 87 kts 49°
2026-04-21 10:33 54.47517 -1.49282 955 ft 85 kts 49°
2026-04-21 10:34 54.47910 -1.48548 822 ft 81 kts 48°
2026-04-21 10:34 54.48273 -1.47856 687 ft 74 kts 47°
2026-04-21 10:34 54.48618 -1.47233 608 ft 70 kts 44°
2026-04-21 10:34 54.48836 -1.46835 565 ft 68 kts 47°
2026-04-21 10:35 54.49254 -1.46063 470 ft 66 kts 45°
2026-04-21 10:35 54.49555 -1.45492 366 ft 65 kts 47°
2026-04-21 10:35 54.49861 -1.44922 285 ft 65 kts 49°
2026-04-21 10:35 54.50162 -1.44367 195 ft 62 kts 46°
2026-04-21 10:36 54.50413 -1.43890 120 ft 42 kts 48°
2026-04-21 10:36 54.50553 -1.43679 119 ft 16 kts 348°
2026-04-21 10:36 54.50608 -1.43727 119 ft 11 kts 337°
2026-04-21 10:36 54.50668 -1.43761 121 ft 7 kts 348°
2026-04-21 10:37 54.50704 -1.43768 119 ft 3 kts 358°
2026-04-21 10:37 54.50733 -1.43768 121 ft 8 kts
2026-04-21 10:37 54.50797 -1.43756 118 ft 10 kts 17°
2026-04-21 10:37 54.50862 -1.43699 118 ft 11 kts 36°
2026-04-21 10:38 54.50919 -1.43607 121 ft 11 kts 45°
2026-04-21 10:38 54.50964 -1.43493 121 ft 12 kts 59°
2026-04-21 10:38 54.51005 -1.43372 121 ft 12 kts 61°
2026-04-21 10:38 54.51047 -1.43250 121 ft 12 kts 60°
2026-04-21 10:39 54.51099 -1.43199 121 ft 11 kts 331°
2026-04-21 10:39 54.51147 -1.43245 121 ft 0 kts 329°